Location: Saalfelden+am+Steinernen+Meer
(47.4274°N, 12.8411°E)
Time: 06:03:45
(UTC+02:00)

X-37B - Visible Passes

Search period start: 17 June 2021 00:00
Search period end: 27 June 2021 00:00
Orbit: 386 x 389 km, 45.0° (Epoch: 10 June)

Date Brightness Start Highest point End Pass type
(mag) Time Alt. Az. Time Alt. Az. Time Alt. Az.
17 Jun 2.2 02:12:08 23° ESE 02:12:08 23° ESE 02:13:47 10° E visible
17 Jun 0.7 03:44:24 12° WSW 03:47:16 55° S 03:50:23 10° E visible
18 Jun 0.7 02:48:20 43° SW 02:48:57 52° S 02:52:04 10° E visible
18 Jun 1.0 04:22:22 10° W 04:25:24 44° SSW 04:28:26 10° ESE visible
19 Jun 2.3 01:52:21 22° ESE 01:52:21 22° ESE 01:53:42 10° E visible
19 Jun 0.7 03:24:37 15° W 03:27:07 52° S 03:30:12 10° ESE visible
20 Jun 0.6 02:28:47 55° S 02:28:48 55° S 02:31:55 10° ESE visible
20 Jun 1.3 04:02:17 10° W 04:05:11 33° SSW 04:08:05 10° SE visible
21 Jun 3.1 01:33:13 13° E 01:33:13 13° E 01:33:35 10° E visible
21 Jun 0.9 03:05:32 26° WSW 03:06:56 43° SSW 03:09:58 10° ESE visible
22 Jun 2.5 02:10:40 19° ESE 02:10:40 19° ESE 02:11:44 10° ESE visible
22 Jun 1.7 03:43:04 14° WSW 03:44:56 24° SSW 03:47:33 10° SSE visible
22 Jun 2.7 21:57:31 10° SSE 21:57:56 10° SE 21:58:21 10° SE visible
22 Jun 3.0 23:31:02 10° SW 23:31:22 12° SW 23:31:22 12° SW visible
23 Jun 1.7 22:33:05 10° SSW 22:35:43 24° SSE 22:37:46 14° ESE visible
24 Jun 2.4 00:08:55 10° WSW 00:10:08 21° WSW 00:10:08 21° WSW visible
24 Jun 0.8 23:10:41 10° WSW 23:13:43 44° SSE 23:15:10 25° ESE visible
25 Jun 3.1 00:47:04 10° W 00:47:29 13° W 00:47:29 13° W visible
25 Jun 1.3 22:12:33 10° SW 22:15:28 34° SSE 22:18:23 10° E visible
25 Jun 0.6 23:48:44 10° W 23:51:52 55° S 23:51:53 55° S visible
26 Jun 0.7 22:50:27 10° WSW 22:53:33 52° S 22:56:01 15° E visible
